Regional Weather Roundup
Issued by NWS Wakefield, VA

Home | Current Version | Previous Version | Text Only | Print | Product List | Glossary On
Versions: 1 2 3 4 5 6 7 8 9 10 11 12 13 14 15 16 17 18 19 20 21 22 23 24 25 26 27 28 29 30 31 32 33 34 35 36 37 38 39 40 41 42 43 44 45 46 47 48 49 50
000
ASUS41 KAKQ 251410
RWRAKQ

REGIONAL WEATHER ROUNDUP
NATIONAL WEATHER SERVICE WAKEFIELD VA
1000 AM EDT FRI JUL 25 2014

Note: "fair" indicates few or no clouds below 12,000 feet with no
significant weather and/or obstructions to visibility. * = Denotes
station may not report precipitation (e.g., rain,snow,etc.),
thunder or fog.

VAZ042-051-052>054-056-251500-
NORTHERN VIRGINIA

CITY           SKY/WX    TMP DP  RH WIND       PRES   REMARKS
WASH NATIONAL  MOSUNNY   75  49  39 N9        30.08S
DULLES         SUNNY     71  48  43 N8        30.09S
FORT BELVOIR   SUNNY     74  55  52 NW7       30.09S
QUANTICO       MOSUNNY   73  58  59 NW7       30.09S
FREDERICKSBRG* SUNNY     71  58  63 CALM      30.08S
STAFFORD*      SUNNY     71  62  74 N3        30.13S
WARRENTON      SUNNY     74  61  65 NW7       30.10S
CULPEPER*      SUNNY    N/A N/A N/A NE3       30.11S
MANASSAS*      SUNNY     68  55  64 N10       30.10R
LEESBURG*      SUNNY     72  55  56 N6        30.11S
WINCHESTER     SUNNY     70  54  56 CALM      30.11S
$$

VAZ048-049-060>072-079>083-251500-
CENTRAL AND SOUTH CENTRAL VIRGINIA...AND NORTH CENTRAL NORTH CAROLINA

CITY           SKY/WX    TMP DP  RH WIND       PRES   REMARKS
RICHMOND       SUNNY     76  63  64 NE7       30.07S
CHESTERFIELD*  SUNNY     73  55  53 CALM      30.10R
HANOVER        SUNNY     72  63  73 VRB5      30.10R
TAPPAHANNOCK*  SUNNY     73  60  63 CALM      30.08S
CHARLOTTSVILLE SUNNY     70  58  65 NE6       30.11R
ORANGE*        SUNNY     70  59  68 CALM      30.11F
LOUISA*        SUNNY     70  59  68 NE6       30.09S
FARMVILLE*     SUNNY     73  66  78 NE6       30.08R
SOUTH HILL*    SUNNY     75  66  73 NE5       30.13R
ROANOKE RAPIDS SUNNY     73  66  78 NE6       30.07S
RALEIGH        PTSUNNY   74  67  78 NE10      30.07S
$$

VAZ088>098-251500-
SOUTHEAST VIRGINIA

CITY           SKY/WX    TMP DP  RH WIND       PRES   REMARKS
NORFOLK        SUNNY     77  62  59 N13       30.04S
VIRGINIA BEACH MOSUNNY   77  63  61 N12       30.04R
NORFOLK NAVAL  MOSUNNY   79  61  53 N14       30.06S
WEST POINT*    SUNNY     77  61  56 CALM      30.09R
NEWPORT NEWS   SUNNY     80  61  52 N10       30.05S
LANGLEY AFB    SUNNY     77  62  60 NE8       30.05R
FORT EUSTIS    SUNNY     76  63  63 NE7       30.04S
WILLIAMSBURG*  SUNNY     73  70  88 NE5       30.07S
FRANKLIN*      SUNNY     75  64  69 N6        30.06S
WAKEFIELD      SUNNY     76  64  66 VRB3      30.06F
$$

VAZ020-022-025-037-045-251500-
WESTERN AND SOUTHWEST VIRGINIA

CITY           SKY/WX    TMP DP  RH WIND       PRES   REMARKS
STAUNTON*      PTSUNNY   67  61  80 NE5       30.14S
HOT SPRINGS VA CLOUDY    60  54  82 SE5       30.21S
LYNCHBURG      PTSUNNY   73  64  73 E5        30.11S
DANVILLE       MOSUNNY   75  65  70 E6        30.09R
MARTINSVILLE   MOSUNNY   77  64  64 E3        30.12R
ROANOKE        PTSUNNY   71  62  73 CALM      30.12F
BLACKSBURG     MOSUNNY   70  64  83 S3          N/A
DUBLIN*        CLOUDY    68  62  79 CALM      30.15F
MARION*        SUNNY    N/A N/A N/A E3        30.17S
HILLSVILLE*    PTSUNNY   67  59  75 CALM      30.15F
RICHLANDS*     CLOUDY    62  60  91 NW3       30.16R
WISE*          CLOUDY    61  61 100 CALM      30.17R
ABINGDON*      MOSUNNY   68  63  85 SE5       30.13R
$$

MDZ021>025-VAZ099-100-251500-
SOUTHERN MARYLAND AND THE DELMARVA PENINSULA

CITY           SKY/WX    TMP DP  RH WIND       PRES   REMARKS
PATUXENT RIVER MOSUNNY   73  60  63 NW9       30.06S
BAY BRIDGE APT   N/A     72  52  49 N8        30.07R
LEONARDTOWN    SUNNY     72  54  53 N5        30.08S
DOVER          SUNNY     71  60  68 NW6       30.02S
GEORGETOWN     SUNNY     73  58  59 VRB6      30.04S
EASTON         SUNNY     73  57  56 N6        30.09R
CAMBRIDGE      SUNNY     73  54  49 NW8       30.05R
SALISBURY      NOT AVBL
OCEAN CITY     SUNNY     75  61  61 NW8       30.03R
WALLOPS ISLAND SUNNY     76  56  49 N13G18    30.04S
ACCOMACK*        N/A     73  55  53 N7        30.05R
$$

NCZ012>017-030>032-251500-
EASTERN NORTH CAROLINA

CITY           SKY/WX    TMP DP  RH WIND       PRES   REMARKS
ELIZABETH CITY SUNNY     77  67  71 N13       30.04R
AHOSKIE*       SUNNY     74  65  74 N7        30.06S
EDENTON*       MOSUNNY   75  69  82 N8        30.05R
CURRITUCK*     SUNNY     78  66  65 N10       30.05R
KILL DEVIL HLS SUNNY     77  69  75 N7        30.02R
MANTEO         NOT AVBL
CAPE HATTERAS  MOSUNNY   79  70  74 VRB6      30.02S
GOLDSBORO      CLOUDY    73  72  98 NE8       30.05R
WASHINGTON     PTSUNNY   72  68  86 N6        30.06S
GREENVILLE     PTSUNNY   75  70  83 NE5       30.07S
NEW BERN       PTSUNNY   76  69  79 N5        30.06R
WILMINGTON     CLOUDY    73  71  93 N6        30.03R
$$

VAZ048-251500-
ELSEWHERE

CITY           SKY/WX    TMP DP  RH WIND       PRES   REMARKS
HARRISBURG PA  SUNNY     70  53  54 W9        30.07F
BALTIMORE      MOSUNNY   73  50  44 N12       30.06F
ANNAPOLIS      SUNNY     72  53  51 NW9       30.06R
ANDREWS AFB    SUNNY     72  53  51 N8        30.08S
WILMINGTON DE  SUNNY     73  55  53 N6        30.05S
PHILADELPHIA   MOSUNNY   73  54  51 VRB3      30.04S
WILDWOOD NJ*   SUNNY     72  57  60 N7        30.04S
ATLANTIC CITY  SUNNY     74  60  61 NE5       30.02S
HENDERSON NC   MOSUNNY   73  64  73 NE6       30.08S
GREENSBORO     PTSUNNY   72  65  78 VRB5      30.09R
ROCKY MOUNT    CLOUDY    74  68  81 NE5       30.06S
FAYETTEVILLE   MOSUNNY   76  67  73 NE8       30.05S
CHARLOTTE      CLOUDY    73  65  75 NE8       30.09R
$$

VAZ100-251500-
MARINE

STATION/POSITION TIME  TEMP    WIND        PRES    WAVE   SWELL
                       AIR SEA DIR/SP/G            HT/PER HT/PER
                 (UTC) (F)     (DEG/KT/KT) (MB)    (FT/S) (FT/S)
44066 TX TWR #4  1400   72 74   10/ 10/ 12 1015.2R   3/ 8   2/ 8
CAPE MAY NJ      1400   73 76   CALM  /  3 1016.4F
LEWES DE         1400   68 72  340/ 11/ 13 1016.6F
15NM E FENWICK I 1400   71 76              1016.5R   3/ 4
OCEAN-CITY-INLET 1400   71 69   10/  7/  9 1016.5R
WACHAPREAGUE VA  1400   75 79  320/  6/ 11 1017.3R
THOMAS POINT MD  1400   70 78  350/  8/ 10 1018.5R
GOOSES REEF MD   1400   70     350/ 10/ 14 1018.6R
COVE POINT MD    1400   70     340/ 12/ 14 1017.9R
SOLOMONS ISLAND  1400      80                N/A
BISHOPS HEAD MD  1400   74 75   10/  5/  7 1017.3R
PINEY POINT MD   1400           20/  5/  5   N/A
POTOMAC MD       1400   74      30/  8/ 12 1017.2R
CAMBRIDGE MD     1400   71 80  330/  9/ 11 1017.4R
LEWISETTA VA     1400   73 79  360/  4/  6 1017.9R
RAPPAHANNOCK LGT 1400           10/ 15/ 18 1018.1R
STINGRAY PT      1400   75      20/ 10/ 14 1018.4R
YORK RVR RNG VA  1400   75      20/ 12/ 15 1017.1S
YORKTOWN VA      1400   75 80   10/  7/  9 1017.5F
JAMESTOWN VA     1400   73      50/  4/  6   N/A
DOMINION TERM VA 1400   77      60/  4/  8 1017.6S
KIPTOPEKE VA     1400      81  360/  8/ 12   N/A
CHES BAY BRIDGE  1400   75 78  360/ 15/ 17 1016.7S
CAPE HENRY VA    1400   74     360/ 13/ 14 1016.2R
WILLOUBY STN VA  1400           20/ 14/ 16 1016.7S
S CRANEY ISL VA  1400          330/ 11/ 14 1017.3F
CAPE HENRY BUOY  1400      77                N/A     2/ 4
1ST LANDING BUOY 1400   75     360/ 12/ 14 1017.0S
CAPE CHARLES BUO 1400      75                N/A     2/ 4
OFFSHORE WE BUOY 1400      78                N/A     3/ 7
64NM E OF VA BCH 1400   76 78  350/ 12/ 14 1015.6R   3/ 7   2/ 7
DUCK PIER NC     1400   74 75  340/ 12/ 13 1016.0R
44056 DUCK FRF   1400                        N/A     2/ 4
OREGON INLET NC  1400   77 77  360/ 10/ 13 1016.6R
HATTERAS NC      1400   76 79   10/  9/ 12 1017.0R
DIAMOND SHLS NC  1400          VRB 12/ 14  1016.2R   3/ 7   2/ 7
CAPE LOOKOUT NC  1300   73      10/  9/ 11 1016.5S
$$



USA.gov is the U.S. government's official web portal to all federal, state and local government web resources and services.